Weather History for KMHV - March, 2014

Change the Weather History Date:

Thursday, March 6, 2014

  Actual Average Record
Temperature  
Mean Temperature 60 °F -  
Max Temperature 66 °F 63 °F 83 °F (1972)
Min Temperature 53 °F 37 °F 27 °F (1976)
Degree Days  
Heating Degree Days 6    
Growing Degree Days 10 (Base 50)    
Moisture  
Dew Point 40 °F    
Average Humidity 49    
Maximum Humidity 63    
Minimum Humidity 24    
Precipitation  
Precipitation 0.00 in - - ()
Sea Level Pressure  
Sea Level Pressure 30.03 in    
Wind  
Wind Speed 18 mph (West)    
Max Wind Speed 38 mph    
Max Gust Speed 53 mph    
Visibility 10 miles    
Events      
Averages and records for this station are not official NWS values.
T = Trace of Precipitation, MM = Missing Value Source: NWS Daily Summary

Daily Weather History Graph

Daily Weather History Graph

Search for Another Location

Airport or City:

Trip Planner

Search our weather history database for the weather conditions in past years. The results will help you decide how hot, cold, wet, or windy it might be!

Date:

Astronomy

Mar. 06, 2014 Rise Set
Actual Time 6:15 AM PST 5:52 PM PST
Civil Twilight 5:50 AM PST 6:18 PM PST
Nautical Twilight 5:20 AM PST 6:47 PM PST
Astronomical Twilight 4:51 AM PST 7:16 PM PST
Moon 9:39 AM PST (3/6) 11:49 PM PST (3/6)
Length of Visible Light 12h 27m
Length of Day
11h 37m
Waxing Crescent, 33% of the Moon is Illuminated
Mar 6
Waxing Crescent
Mar 8
First Quarter
Mar 16
Full
Mar 23
Last Quarter
Mar 30
New

Hourly Weather History & Observations

Time (PST) Temp. Dew Point Humidity Pressure Visibility Wind Dir Wind Speed Gust Speed Precip Events Conditions
12:15 AM 59.0 °F 28.4 °F 31% 30.06 in 10.0 mi WNW 10.4 mph - N/A   Clear
12:35 AM 60.8 °F 24.8 °F 25% 30.06 in 10.0 mi WNW 12.7 mph 20.7 mph N/A   Clear
12:55 AM 62.6 °F 24.8 °F 24% 30.07 in 10.0 mi WNW 10.4 mph 23.0 mph N/A   Clear
1:15 AM 59.0 °F 26.6 °F 29% 30.08 in 10.0 mi WSW 6.9 mph - N/A   Clear
1:35 AM 59.0 °F 28.4 °F 31% 30.08 in 10.0 mi South 6.9 mph 19.6 mph N/A   Clear
1:55 AM 59.0 °F 32.0 °F 36% 30.07 in 10.0 mi SW 11.5 mph 17.3 mph N/A   Clear
2:15 AM 57.2 °F 37.4 °F 48% 30.06 in 10.0 mi West 16.1 mph - N/A   Clear
2:35 AM 57.2 °F 39.2 °F 51% 30.06 in 10.0 mi West 16.1 mph - N/A   Clear
2:55 AM 57.2 °F 37.4 °F 48% 30.04 in 10.0 mi West 16.1 mph - N/A   Clear
3:15 AM 59.0 °F 32.0 °F 36% 30.04 in 10.0 mi West 16.1 mph - N/A   Clear
3:35 AM 57.2 °F 39.2 °F 51% 30.03 in 10.0 mi WSW 16.1 mph - N/A   Clear
3:55 AM 59.0 °F 33.8 °F 39% 30.03 in 10.0 mi West 20.7 mph - N/A   Clear
4:15 AM 57.2 °F 37.4 °F 48% 30.03 in 10.0 mi WSW 19.6 mph - N/A   Clear
4:35 AM 59.0 °F 35.6 °F 42% 30.04 in 10.0 mi West 13.8 mph - N/A   Clear
4:55 AM 59.0 °F 33.8 °F 39% 30.03 in 10.0 mi West 16.1 mph - N/A   Clear
5:15 AM 59.0 °F 33.8 °F 39% 30.04 in 10.0 mi WSW 18.4 mph 26.5 mph N/A   Clear
5:35 AM 60.8 °F 33.8 °F 36% 30.03 in 10.0 mi West 21.9 mph 33.4 mph N/A   Clear
5:55 AM 59.0 °F 37.4 °F 45% 30.03 in 10.0 mi West 26.5 mph 29.9 mph N/A   Clear
6:15 AM 57.2 °F 41.0 °F 55% 30.04 in 10.0 mi West 29.9 mph 35.7 mph N/A   Clear
6:35 AM 57.2 °F 44.6 °F 63% 30.05 in 10.0 mi WSW 25.3 mph - N/A   Clear
6:55 AM 57.2 °F 44.6 °F 63% 30.05 in 10.0 mi WSW 23.0 mph - N/A   Clear
7:15 AM 57.2 °F 42.8 °F 59% 30.05 in 10.0 mi WSW 20.7 mph - N/A   Clear
7:35 AM 59.0 °F 42.8 °F 55% 30.05 in 10.0 mi WSW 20.7 mph - N/A   Clear
7:55 AM 60.8 °F 41.0 °F 48% 30.05 in 10.0 mi WSW 21.9 mph 34.5 mph N/A   Clear
8:15 AM 59.0 °F 42.8 °F 55% 30.06 in 10.0 mi WSW 21.9 mph 33.4 mph N/A   Clear
8:35 AM 60.8 °F 42.8 °F 52% 30.07 in 10.0 mi WSW 23.0 mph 34.5 mph N/A   Clear
8:55 AM 62.6 °F 42.8 °F 48% 30.07 in 10.0 mi West 19.6 mph 26.5 mph N/A   Clear
9:15 AM 60.8 °F 42.8 °F 52% 30.06 in 10.0 mi West 20.7 mph - N/A   Clear
9:35 AM 62.6 °F 44.6 °F 52% 30.07 in 10.0 mi WSW 20.7 mph 25.3 mph N/A   Clear
9:55 AM 64.4 °F 46.4 °F 52% 30.07 in 10.0 mi West 25.3 mph - N/A   Clear
10:15 AM 66.2 °F 42.8 °F 43% 30.08 in 10.0 mi West 26.5 mph 35.7 mph N/A   Clear
10:35 AM 64.4 °F 46.4 °F 52% 30.08 in 10.0 mi West 23.0 mph 31.1 mph N/A   Clear
10:55 AM 64.4 °F 46.4 °F 52% 30.07 in 10.0 mi WSW 21.9 mph 31.1 mph N/A   Clear
11:15 AM 64.4 °F 46.4 °F 52% 30.06 in 10.0 mi WSW 26.5 mph 29.9 mph N/A   Clear
11:35 AM 66.2 °F 46.4 °F 49% 30.06 in 10.0 mi WSW 25.3 mph 29.9 mph N/A   Clear
11:55 AM 66.2 °F 48.2 °F 52% 30.07 in 10.0 mi West 25.3 mph 29.9 mph N/A   Mostly Cloudy
12:15 PM 64.4 °F 46.4 °F 52% 30.06 in 10.0 mi WSW 18.4 mph 28.8 mph N/A   Mostly Cloudy
12:35 PM 64.4 °F 48.2 °F 56% 30.06 in 10.0 mi WSW 18.4 mph 24.2 mph N/A   Overcast
12:55 PM 64.4 °F 46.4 °F 52% 30.06 in 10.0 mi West 10.4 mph 21.9 mph N/A   Overcast
1:15 PM 64.4 °F 46.4 °F 52% 30.05 in 10.0 mi West 13.8 mph 21.9 mph N/A   Overcast
1:35 PM 62.6 °F 48.2 °F 59% 30.03 in 10.0 mi SW 6.9 mph 20.7 mph N/A   Overcast
1:55 PM 62.6 °F 48.2 °F 59% 30.02 in 10.0 mi SW 17.3 mph 21.9 mph N/A   Mostly Cloudy
2:15 PM 62.6 °F 48.2 °F 59% 30.02 in 10.0 mi SSW 9.2 mph 21.9 mph N/A   Mostly Cloudy
2:35 PM 60.8 °F 48.2 °F 63% 30.01 in 10.0 mi South 12.7 mph 19.6 mph N/A   Mostly Cloudy
2:55 PM 62.6 °F 46.4 °F 55% 30.01 in 10.0 mi WNW 18.4 mph - N/A   Mostly Cloudy
3:15 PM 64.4 °F 46.4 °F 52% 30.00 in 10.0 mi WNW 25.3 mph 33.4 mph N/A   Partly Cloudy
3:35 PM 64.4 °F 46.4 °F 52% 30.00 in 10.0 mi WNW 21.9 mph 32.2 mph N/A   Clear
3:55 PM 64.4 °F 44.6 °F 49% 29.98 in 10.0 mi WNW 28.8 mph 41.4 mph N/A   Clear
4:15 PM 64.4 °F 46.4 °F 52% 29.98 in 10.0 mi WNW 28.8 mph 39.1 mph N/A   Clear
4:35 PM 62.6 °F 46.4 °F 55% 29.99 in 10.0 mi WNW 19.6 mph 28.8 mph N/A   Partly Cloudy
4:55 PM 62.6 °F 46.4 °F 55% 29.99 in 10.0 mi West 20.7 mph 31.1 mph N/A   Clear
5:15 PM 62.6 °F 44.6 °F 52% 29.99 in 10.0 mi WNW 15.0 mph 29.9 mph N/A   Clear
5:35 PM 60.8 °F 44.6 °F 55% 29.99 in 10.0 mi West 17.3 mph 25.3 mph N/A   Partly Cloudy
5:55 PM 59.0 °F 44.6 °F 59% 29.99 in 10.0 mi West 16.1 mph 27.6 mph N/A   Scattered Clouds
6:15 PM 59.0 °F 46.4 °F 63% 30.00 in 10.0 mi SW 11.5 mph 18.4 mph N/A   Mostly Cloudy
6:35 PM 59.0 °F 46.4 °F 63% 29.99 in 10.0 mi WSW 17.3 mph 26.5 mph N/A   Mostly Cloudy
6:55 PM 59.0 °F 46.4 °F 63% 29.99 in 10.0 mi West 19.6 mph 27.6 mph N/A   Mostly Cloudy
7:15 PM 59.0 °F 44.6 °F 59% 29.99 in 10.0 mi West 25.3 mph 32.2 mph N/A   Partly Cloudy
7:35 PM 59.0 °F 41.0 °F 51% 29.99 in 10.0 mi West 27.6 mph 39.1 mph N/A   Clear
7:55 PM 57.2 °F 41.0 °F 55% 30.01 in 10.0 mi West 17.3 mph 38.0 mph N/A   Clear
8:15 PM 57.2 °F 39.2 °F 51% 30.00 in 10.0 mi West 28.8 mph 40.3 mph N/A   Clear
8:35 PM 57.2 °F 39.2 °F 51% 29.99 in 10.0 mi West 27.6 mph 42.6 mph N/A   Clear
8:55 PM 57.2 °F 35.6 °F 44% 30.01 in 10.0 mi WSW 23.0 mph 35.7 mph N/A   Clear
9:15 PM 57.2 °F 37.4 °F 48% 30.00 in 10.0 mi West 23.0 mph 40.3 mph N/A   Clear
9:35 PM 55.4 °F 37.4 °F 51% 30.01 in 10.0 mi WSW 31.1 mph 35.7 mph N/A   Clear
9:55 PM 55.4 °F 35.6 °F 47% 30.01 in 10.0 mi West 28.8 mph 44.9 mph N/A   Clear
10:15 PM 55.4 °F 35.6 °F 47% 30.01 in 10.0 mi West 28.8 mph 42.6 mph N/A   Clear
10:35 PM 55.4 °F 33.8 °F 44% 30.00 in 10.0 mi West 33.4 mph 44.9 mph N/A   Clear
10:55 PM 53.6 °F 32.0 °F 44% 29.99 in 10.0 mi West 38.0 mph 43.7 mph N/A   Clear
11:15 PM 53.6 °F 32.0 °F 44% 29.98 in 10.0 mi West 32.2 mph 52.9 mph N/A   Clear
11:35 PM 53.6 °F 32.0 °F 44% 30.01 in 10.0 mi WSW 19.6 mph 41.4 mph N/A   Clear
11:55 PM 53.6 °F 32.0 °F 44% 30.04 in 10.0 mi South 15.0 mph 25.3 mph N/A   Clear